Weather History for KTBN - November, 2010

Change the Weather History Date:

Wednesday, November 10, 2010

  Actual Average Record
Temperature  
Mean Temperature 64 °F -  
Max Temperature 73 °F 54 °F - (-1)
Min Temperature 54 °F 39 °F - (-1)
Degree Days  
Heating Degree Days 2    
Growing Degree Days 14 (Base 50)    
Moisture  
Dew Point 51 °F    
Average Humidity 66    
Maximum Humidity 91    
Minimum Humidity 42    
Precipitation  
Precipitation 0.00 in - - ()
Sea Level Pressure  
Sea Level Pressure 29.99 in    
Wind  
Wind Speed 8 mph (South)    
Max Wind Speed 14 mph    
Max Gust Speed 21 mph    
Visibility 10 miles    
Events      
Averages and records for this station are not official NWS values.
T = Trace of Precipitation, MM = Missing Value Source: NWS Daily Summary

Daily Weather History Graph

Daily Weather History Graph

Search for Another Location

Airport or City:

Trip Planner

Search our weather history database for the weather conditions in past years. The results will help you decide how hot, cold, wet, or windy it might be!

Date:

Astronomy

Nov. 10, 2010 Rise Set
Actual Time 6:43 AM CST 5:01 PM CST
Civil Twilight 6:15 AM CST 5:28 PM CST
Nautical Twilight 5:44 AM CST 6:00 PM CST
Astronomical Twilight 5:13 AM CST 6:31 PM CST
Moon 11:05 AM CST (11/10) 9:05 PM CST (11/10)
Length of Visible Light 11h 13m
Length of Day
10h 17m
Waxing Crescent, 23% of the Moon is Illuminated
Nov 10
Waxing Crescent
Nov 13
First Quarter
Nov 21
Full
Nov 28
Last Quarter
Dec 5
New

Hourly Weather History & Observations

Time (CST) Temp. Dew Point Humidity Pressure Visibility Wind Dir Wind Speed Gust Speed Precip Events Conditions
12:55 AM 55.6 °F 42.3 °F 61% 29.93 in 10.0 mi SSE 6.9 mph - N/A   Clear
1:55 AM 55.4 °F 43.0 °F 63% 29.94 in 10.0 mi South 6.9 mph - N/A   Clear
2:55 AM 55.8 °F 44.4 °F 66% 29.94 in 10.0 mi SSE 8.1 mph - N/A   Clear
3:55 AM 55.9 °F 46.6 °F 71% 29.94 in 10.0 mi South 8.1 mph - N/A   Clear
4:55 AM 54.7 °F 46.9 °F 75% 29.94 in 10.0 mi SSE 8.1 mph - N/A   Clear
5:55 AM 54.7 °F 47.1 °F 76% 29.96 in 10.0 mi SSE 9.2 mph - N/A   Mostly Cloudy
6:55 AM 54.0 °F 47.7 °F 79% 29.96 in 10.0 mi SSE 9.2 mph - N/A   Mostly Cloudy
7:55 AM 57.6 °F 49.6 °F 75% 29.98 in 10.0 mi SSE 6.9 mph - N/A   Clear
8:55 AM 63.5 °F 53.6 °F 70% 29.98 in 10.0 mi South 13.8 mph 19.6 mph N/A   Partly Cloudy
9:55 AM 67.8 °F 55.0 °F 64% 29.97 in 10.0 mi South 9.2 mph 18.4 mph N/A   Clear
10:55 AM 71.1 °F 54.1 °F 55% 29.97 in 10.0 mi South 10.4 mph - N/A   Clear
11:55 AM 72.3 °F 51.1 °F 47% 29.96 in 10.0 mi SSW 12.7 mph 20.7 mph N/A   Partly Cloudy
12:55 PM 72.7 °F 48.0 °F 42% 29.95 in 10.0 mi South 13.8 mph 20.7 mph N/A   Scattered Clouds
1:55 PM 73.4 °F 51.3 °F 46% 29.95 in 10.0 mi South 11.5 mph 19.6 mph N/A   Scattered Clouds
2:55 PM 73.6 °F 52.2 °F 47% 29.95 in 10.0 mi South 10.4 mph 19.6 mph N/A   Mostly Cloudy
3:55 PM 71.4 °F 52.3 °F 51% 29.96 in 10.0 mi South 10.4 mph 17.3 mph N/A   Scattered Clouds
4:55 PM 69.8 °F 52.3 °F 54% 29.98 in 10.0 mi South 5.8 mph - N/A   Partly Cloudy
5:55 PM 65.7 °F 53.4 °F 65% 30.01 in 10.0 mi South 5.8 mph - N/A   Clear
6:55 PM 63.1 °F 53.1 °F 70% 30.03 in 10.0 mi South 5.8 mph - N/A   Clear
7:55 PM 61.5 °F 53.1 °F 74% 30.05 in 10.0 mi SSE 8.1 mph - N/A   Clear
8:55 PM 59.9 °F 53.4 °F 79% 30.06 in 10.0 mi SE 8.1 mph - N/A   Clear
9:55 PM 57.7 °F 53.2 °F 85% 30.08 in 10.0 mi SSE 8.1 mph - N/A   Clear
10:55 PM 59.7 °F 55.6 °F 86% 30.09 in 10.0 mi South 5.8 mph - N/A   Clear
11:55 PM 57.7 °F 55.2 °F 91% 30.11 in 10.0 mi SSE 4.6 mph - N/A   Clear